TimeEDT,TemperatureF,Dew PointF,Humidity,Sea Level PressureIn,VisibilityMPH,Wind Direction,Wind SpeedMPH,Gust SpeedMPH,PrecipitationIn,Events,Conditions,WindDirDegrees,DateUTC
12:53 AM,66.9,63.0,87,30.10,9.0,Calm,Calm,-,N/A,,Overcast,0,2013-08-07 04:53:00
1:53 AM,66.9,64.0,90,30.09,9.0,SE,4.6,-,N/A,,Overcast,140,2013-08-07 05:53:00
2:00 AM,66.2,64.4,94,30.10,9.0,SE,3.5,-,N/A,,Overcast,130,2013-08-07 06:00:00
2:19 AM,66.2,64.4,94,30.10,9.0,ESE,4.6,-,N/A,,Overcast,120,2013-08-07 06:19:00
2:53 AM,66.9,64.0,90,30.09,8.0,ESE,4.6,-,N/A,,Overcast,120,2013-08-07 06:53:00
3:53 AM,66.0,63.0,90,30.09,8.0,East,4.6,-,N/A,,Overcast,100,2013-08-07 07:53:00
4:53 AM,66.0,64.0,93,30.10,8.0,SE,3.5,-,N/A,,Overcast,140,2013-08-07 08:53:00
5:53 AM,66.0,63.0,90,30.10,7.0,ESE,5.8,-,N/A,,Overcast,120,2013-08-07 09:53:00
6:51 AM,64.4,62.6,94,30.10,6.0,ESE,5.8,-,N/A,,Overcast,120,2013-08-07 10:51:00
6:53 AM,66.0,63.0,90,30.09,6.0,ESE,5.8,-,N/A,,Overcast,120,2013-08-07 10:53:00
7:53 AM,66.9,63.0,87,30.09,8.0,SE,9.2,-,N/A,,Overcast,140,2013-08-07 11:53:00
8:53 AM,69.1,63.0,81,30.08,10.0,SSE,10.4,-,N/A,,Mostly Cloudy,150,2013-08-07 12:53:00
9:53 AM,70.0,64.0,81,30.09,10.0,SSE,6.9,-,N/A,,Overcast,160,2013-08-07 13:53:00
10:53 AM,70.0,64.0,81,30.09,8.0,SSE,9.2,-,N/A,,Overcast,160,2013-08-07 14:53:00
11:53 AM,71.1,66.0,84,30.09,9.0,SSE,9.2,-,N/A,,Overcast,160,2013-08-07 15:53:00
12:53 PM,72.0,66.9,84,30.08,9.0,SSE,9.2,-,0.00,,Overcast,160,2013-08-07 16:53:00
1:28 PM,73.4,66.2,78,30.08,9.0,South,8.1,-,N/A,,Overcast,170,2013-08-07 17:28:00
1:43 PM,71.6,66.2,83,30.07,7.0,South,10.4,-,N/A,,Overcast,170,2013-08-07 17:43:00
1:50 PM,71.6,66.2,83,30.07,8.0,South,9.2,-,N/A,,Overcast,170,2013-08-07 17:50:00
1:53 PM,72.0,66.9,84,30.07,8.0,South,9.2,-,N/A,,Overcast,170,2013-08-07 17:53:00
2:44 PM,73.4,66.2,78,30.07,9.0,SE,8.1,-,N/A,,Overcast,140,2013-08-07 18:44:00
2:53 PM,73.9,66.9,79,30.06,9.0,SSE,9.2,-,N/A,,Overcast,150,2013-08-07 18:53:00
3:53 PM,75.9,68.0,76,30.05,10.0,South,9.2,-,N/A,,Overcast,170,2013-08-07 19:53:00
4:26 PM,75.2,68.0,78,30.04,10.0,SE,5.8,-,N/A,,Overcast,140,2013-08-07 20:26:00
4:53 PM,75.9,68.0,76,30.03,9.0,SSE,11.5,-,N/A,,Overcast,150,2013-08-07 20:53:00
5:53 PM,75.9,68.0,76,30.04,9.0,SSE,9.2,-,N/A,,Overcast,160,2013-08-07 21:53:00
6:53 PM,75.0,69.1,82,30.02,9.0,SSE,6.9,-,N/A,,Overcast,150,2013-08-07 22:53:00
7:38 PM,75.2,69.8,83,30.03,8.0,SE,9.2,-,N/A,,Overcast,140,2013-08-07 23:38:00
7:53 PM,73.9,69.1,85,30.02,8.0,SE,8.1,-,N/A,,Mostly Cloudy,130,2013-08-07 23:53:00
8:53 PM,73.0,69.1,87,30.03,8.0,SE,8.1,-,N/A,,Partly Cloudy,140,2013-08-08 00:53:00
9:53 PM,72.0,70.0,93,30.04,6.0,ESE,5.8,-,N/A,Rain,Light Rain,120,2013-08-08 01:53:00
10:53 PM,72.0,70.0,93,30.06,3.0,Calm,Calm,-,N/A,Rain-Thunderstorm,Rain,0,2013-08-08 02:53:00
11:07 PM,71.6,69.8,94,30.07,3.0,NW,4.6,-,N/A,Rain-Thunderstorm,Rain,310,2013-08-08 03:07:00
11:13 PM,71.6,69.8,94,30.06,3.0,Calm,Calm,-,N/A,Rain,Rain,0,2013-08-08 03:13:00
11:20 PM,71.6,69.8,94,30.06,2.5,Calm,Calm,-,N/A,Rain,Rain,0,2013-08-08 03:20:00
11:32 PM,71.6,69.8,94,30.06,2.0,West,6.9,-,N/A,Rain-Thunderstorm,Rain,280,2013-08-08 03:32:00
11:40 PM,69.8,68.0,94,30.06,1.5,WSW,12.7,-,N/A,Rain-Thunderstorm,Heavy Rain,240,2013-08-08 03:40:00
11:53 PM,70.0,68.0,93,30.04,3.0,SW,4.6,-,N/A,Rain,Rain,220,2013-08-08 03:53:00